Regional Weather Roundup
Issued by NWS

Home | Current Version | Previous Version | Graphics & Text | Print | Product List | Glossary On
Versions: 1 2 3 4 5 6 7 8 9 10 11 12 13 14 15 16 17 18 19 20 21 22 23 24 25 26 27 28 29 30 31 32 33 34 35 36 37 38 39 40 41 42 43 44 45 46 47 48 49 50
000
ASUS43 KDMX 261204
RWRIA

WEATHER ROUNDUP FOR IOWA
NATIONAL WEATHER SERVICE DES MOINES IA
  ISSUED BY NWS QUAD CITIES IA IL
600 AM CST MON JAN 26 2015

NOTE: "FAIR" INDICATES FEW OR NO CLOUDS BELOW 12,000 FEET WITH NO
SIGNIFICANT WEATHER AND/OR OBSTRUCTIONS TO VISIBILITY.

* - THESE STATIONS ARE NOT NWS STATIONS...THUS NOT UNDER NWS
QUALITY CONTROL.  THEY ALSO DO NOT REPORT WEATHER SUCH
AS PRECIPITATION OR FOG.

IAZ001>003-012>014-020>022-031>034-043>046-261300-
   NORTHWEST IOWA

CITY           SKY/WX    TMP DP  RH WIND       PRES   REMARKS
CARROLL *      CLOUDY    30  28  93 S12       29.86F WCI  21
CHEROKEE *     CLOUDY    33  32  96 SW13      29.81F WCI  24
6HR MIN TEMP:  29; 6HR MAX TEMP:  33;

DENNISON *     PTCLDY    30  30 100 SW10G16   29.84F WCI  21
LE MARS *      PTCLDY    32  30  93 S12       29.81F WCI  23
SIOUX CITY     CLEAR     33  28  81 SW6       29.84F WCI  28
6HR MIN TEMP:  29; 6HR MAX TEMP:  34;

SPENCER        CLOUDY    34  30  85 SW15      29.77F WCI  24
6HR MIN TEMP:  32; 6HR MAX TEMP:  34; 6HR PCP: TRACE;

$$

IAZ055>058-069>071-079>083-090>094-261300-
   SOUTHWEST IOWA

CITY           SKY/WX    TMP DP  RH WIND       PRES   REMARKS
ATLANTIC *     MOCLDY    27  27 100 S10       29.91F WCI  17
AUDUBON *      MOCLDY    28  27  93 S9        29.89F WCI  20
CLARINDA *     CLEAR     25  25 100 S6        29.98F WCI  18
COUNCIL BLFS * CLEAR     32  32 100 S10       29.89F WCI  24
CRESTON *      PTCLDY    27  27 100 SW9       29.94F WCI  17
HARLAN *       PTCLDY    27  27 100 S8        29.92F WCI  18
LAMONI         MOCLDY    28  25  88 S9        29.96F WCI  19
6HR MIN TEMP:  28; 6HR MAX TEMP:  31;

$$

IAZ047>049-059>061-072>074-084-261300-
   CENTRAL IOWA

CITY           SKY/WX    TMP DP  RH WIND       PRES   REMARKS
AMES           CLOUDY    31  27  85 SW13      29.90F WCI  21
6HR MIN TEMP:  27; 6HR MAX TEMP:  31;

ANKENY *       CLOUDY    32  28  86 SW8G16    29.93S WCI  25
BOONE *        CLOUDY    32  30  93 SW8G15    29.88F WCI  25
CHARITON *     CLOUDY    32  28  86 SW9       29.95F WCI  24
DES MOINES     CLOUDY    33  26  75 SW9       29.94F WCI  25
6HR MIN TEMP:  32; 6HR MAX TEMP:  33;

GRINNELL *     CLOUDY    30  26  88 SW10      29.91F WCI  21
6HR MIN TEMP:  27; 6HR MAX TEMP:  30;

MARSHALLTOWN   CLOUDY    30  26  85 SW12      29.91F WCI  20
6HR MIN TEMP:  26; 6HR MAX TEMP:  30;

PERRY *          N/A     31  30  94 S10       29.89F WCI  23
6HR MIN TEMP:  31; 6HR MAX TEMP:  32;

$$

IAZ004>006-015-016-023>025-035-036-261300-
   NORTH CENTRAL IOWA

CITY           SKY/WX    TMP DP  RH WIND       PRES   REMARKS
ALGONA *       CLOUDY    32  32 100 S21G28    29.77F WCI  20
CLARION *      CLOUDY    30  30 100 SW21      29.81F WCI  17
ESTHERVILLE    CLOUDY    32  30  92 SW22      29.75F WCI  19
6HR MIN TEMP:  29; 6HR MAX TEMP:  32;

FORT DODGE *   CLOUDY    30  27  86 S9        29.88F WCI  22
6HR MIN TEMP:  28; 6HR MAX TEMP:  30;

MASON CITY     CLOUDY    30  28  92 S18       29.80F WCI  18
6HR MIN TEMP:  25; 6HR MAX TEMP:  30; 6HR PCP: TRACE;

WEBSTER CITY * CLOUDY    32  32 100 SW13      29.86F WCI  22
IOWA FALLS *   CLOUDY    31  28  88 SW18      29.88F WCI  19
6HR MIN TEMP:  24; 6HR MAX TEMP:  31;

$$

IAZ007>011-017>019-026>030-037>042-050>054-066-261300-
   NORTHEAST IOWA

CITY           SKY/WX    TMP DP  RH WIND       PRES   REMARKS
CEDAR RAPIDS   CLOUDY    21  17  84 S7        29.93F WCI  12
6HR MIN TEMP:  19; 6HR MAX TEMP:  22;

CHARLES CITY * LGT SNOW  28  28 100 S13       29.84F VSB 1   WCI  18
CLINTON *      CLOUDY    14  10  85 SE3       29.99F
6HR MIN TEMP:   9; 6HR MAX TEMP:  16;

DECORAH *      MIX PCPN  23  19  86 S9        29.84F WCI  13
DUBUQUE        CLOUDY    19  12  74 S8        29.93S WCI   9
6HR MIN TEMP:   8; 6HR MAX TEMP:  19;

WATERLOO       FLURRIES  26  24  92 S6        29.90R WCI  19
6HR MIN TEMP:  24; 6HR MAX TEMP:  28; 6HR PCP: TRACE;

$$

IAZ064-065-067-068-078-261300-
   EAST CENTRAL IOWA

CITY           SKY/WX    TMP DP  RH WIND       PRES   REMARKS
DAVENPORT      CLOUDY    17  12  80 S3        29.97F
6HR MIN TEMP:   9; 6HR MAX TEMP:  17;

IOWA CITY      CLOUDY    22  16  78 SE5       29.98F WCI  16
6HR MIN TEMP:  18; 6HR MAX TEMP:  22;

QUAD CITIES    CLOUDY    18  13  80 SE5       29.97F WCI  11
6HR MIN TEMP:  12; 6HR MAX TEMP:  20;

$$

IAZ062-063-075>077-085>089-095>099-261300-
   SOUTHEAST IOWA

CITY           SKY/WX    TMP DP  RH WIND       PRES   REMARKS
BURLINGTON     CLOUDY    24  19  81 SW6       29.99S WCI  17
6HR MIN TEMP:  21; 6HR MAX TEMP:  24;

FAIRFIELD *    CLOUDY    27  23  86 S10       29.95F WCI  17
FORT MADISON * CLOUDY    27  21  80 SW5       30.01F WCI  21
KEOKUK *       CLOUDY    27  23  86 SW5       30.02R WCI  21
OTTUMWA        CLOUDY    29  26  89 SW8       29.94F WCI  21
6HR MIN TEMP:  26; 6HR MAX TEMP:  29;

WASHINGTON *   CLOUDY    25  23  93 S10       29.94F WCI  15
$$

ABBREVIATIONS USED IN REMARKS
   TC - TEMPERATURES IN CELSIUS
  WCI - WIND CHILL INDEX
   HX - HEAT INDEX
  VSB - VISIBILITY
$$



USA.gov is the U.S. government's official web portal to all federal, state and local government web resources and services.